Flag for U.S.A. Weather past 2 weeks in Vincennes, Indiana, U.S.A.

Now
69 °F

Fog.


Feels Like: 69 °F
Forecast: 69 / 91 °F
Wind: 3 mph from South

Location: Lawrenceville-Vincennes International Airport

Current Time: Aug 20, 2014 at 7:21:25 AM

Latest Report: Aug 20, 2014 at 6:59 AM


Visibility: 1 mi

Pressure: 29.90 "Hg

Humidity: 96%

Dew point: 68 °F

Location of VincennesLocation

Historic Weather in Vincennes — Graph

°F

Vincennes temperature yesterday

Maximum temperature yesterday: 85 °F (at 1:53 PM)
Minimum temperature yesterday: 66 °F (at 6:53 AM)
Average temperature yesterday: 76 °F

Past Weeks' High & Low Weather Summary

 TemperatureHumidityPressure
High85 °F (Aug 19, 1:53 PM)100% (Aug 6, 5:53 AM)30.10 "Hg (Aug 6, 5:53 AM)
Low57 °F (Aug 13, 4:53 AM)44% (Aug 13, 4:53 PM)29.78 "Hg (Aug 19, 4:53 PM)
Average72 °F84%29.95 "Hg
* Reported Aug 5 5:53 AM — Aug 20 5:53 AM, Vincennes, Weather by CustomWeather, © 2014

Note: Actual official high and low records may vary slightly from our data, if they occured in-between our weather recording intervals... More about our weather records

Advertising

Vincennes weather history for previous 24 hours

 ConditionsComfort  
Time TempWeatherWind HumidityBarometerVisibility
5:53 AM
Aug 20
70 °FFog.No wind97%29.86 "Hg5 mi
4:53 AM70 °FFog.3 mph97%29.84 "Hg4 mi
3:53 AM71 °FFog.No wind96%29.84 "Hg5 mi
2:53 AM73 °FClear.5 mph97%29.84 "Hg7 mi
1:53 AM75 °FClear.5 mph94%29.84 "Hg8 mi
12:53 AM76 °FFog.7 mph97%29.83 "Hg5 mi
11:53 PM
Aug 19
75 °FFog.5 mph96%29.83 "Hg3 mi
10:53 PM75 °FFog.6 mph96%29.81 "Hg4 mi
9:53 PM76 °FFog.5 mph94%29.79 "Hg5 mi
8:53 PM78 °FFog.5 mph90%29.79 "Hg6 mi
7:53 PM83 °FSunny.6 mph79%29.78 "Hg8 mi
6:53 PM84 °FSunny.7 mph77%29.78 "Hg8 mi
5:53 PM85 °FSunny.12 mph72%29.78 "Hg8 mi
4:53 PM85 °FSunny.10 mph72%29.78 "Hg8 mi
3:53 PM84 °FSunny.10 mph72%29.80 "Hg9 mi
2:53 PM85 °FSunny.8 mph68%29.81 "Hg10 mi
1:53 PM85 °FBroken clouds.13 mph68%29.85 "Hg9 mi
12:53 PM84 °FWarm.9 mph70%29.85 "HgN/A
10:53 AM80 °FSunny.10 mph76%29.84 "Hg8 mi
9:53 AM73 °FFog.5 mph97%29.85 "Hg4 mi
8:53 AM70 °FFog.3 mph100%29.85 "Hg0 mi
7:53 AM67 °FFog.3 mph97%29.84 "Hg1 mi
Weather by CustomWeather, © 2014

See weather overviewHow to use our weather pages